Theta_e
334 326 327 335 334 334 335 336 335 333 335 336 336 335 334 331 329 328 328 327 327 327 327 327 327 327 326 325 323 322 323 323 324 326 326 326 325 326 324 322 318 323 324
332 322 331 337 334 335 336 336 336 333 335 336 336 335 332 329 328 327 327 327 327 327 327 327 327 327 327 325 319 319 320 322 322 323 324 326 327 326 326 325 324 325 325
328 323 334 333 329 335 336 336 335 332 336 337 336 334 332 330 329 327 326 327 327 327 327 327 326 326 325 321 318 317 321 322 322 322 323 324 326 327 327 326 326 323 322
322 328 336 330 328 333 336 335 335 336 337 337 336 334 331 329 329 327 328 327 327 327 327 326 325 324 322 319 316 316 321 322 322 322 321 321 321 325 327 328 326 323 320
329 334 335 330 327 327 334 336 337 337 337 335 334 334 330 330 330 327 328 328 327 327 326 325 325 325 324 322 321 317 318 321 321 321 322 323 322 324 326 328 328 326 324
335 335 333 330 328 325 323 331 334 334 334 332 330 328 329 328 327 327 328 326 322 323 324 324 323 322 322 321 320 321 321 322 323 324 324 324 323 323 322 325 326 327 326
334 333 333 330 326 321 319 319 323 327 326 323 322 321 318 318 319 322 323 318 319 321 322 321 321 321 320 319 319 318 317 323 324 324 324 324 324 323 322 325 326 327 327
334 333 331 326 322 321 319 318 318 320 322 320 319 318 318 317 317 317 318 319 321 321 322 321 320 319 321 323 322 321 321 322 322 321 322 322 323 322 323 322 326 326 326
332 333 328 326 324 321 318 317 316 319 325 320 317 318 319 320 321 323 323 323 322 320 319 318 319 321 323 324 324 323 323 323 323 322 322 322 322 322 323 323 322 326 326
333 332 329 328 324 320 317 316 316 316 316 317 321 324 324 324 321 319 318 317 318 318 321 322 324 324 324 324 324 324 324 324 324 323 323 323 323 322 323 325 325 325 327
333 332 329 325 326 321 317 318 319 320 322 323 326 327 327 326 325 323 324 324 326 325 326 326 327 327 328 328 328 327 328 327 326 325 324 324 324 323 326 327 327 328 328
332 329 327 327 329 326 317 319 322 325 326 327 329 328 327 327 324 327 327 327 328 327 328 328 328 328 329 328 328 329 329 328 328 328 328 327 326 326 327 328 327 328 329
331 330 329 327 329 327 316 321 326 328 328 327 328 329 328 328 327 328 328 328 329 329 329 329 329 329 330 330 331 330 330 329 328 326 328 328 328 326 326 327 329 329 329
331 330 329 328 329 327 323 328 329 328 328 329 329 328 326 328 328 329 330 330 329 329 330 330 331 331 331 330 329 328 328 327 326 325 325 324 323 325 325 325 326 326 327
330 330 329 328 328 327 329 330 330 329 330 330 330 327 328 329 330 330 328 328 328 330 331 331 330 329 327 325 322 322 323 323 322 323 323 323 321 321 321 323 325 326 326
328 329 330 329 329 328 329 329 329 329 330 330 329 329 329 330 328 328 328 328 330 330 330 329 327 325 322 321 320 319 319 319 318 318 319 320 321 322 321 321 322 323 323
327 328 329 330 329 330 329 329 329 330 330 329 329 329 330 327 328 328 330 330 328 327 327 325 324 321 317 316 316 316 314 310 313 316 318 319 319 319 319 319 319 320 320
328 328 329 330 330 330 330 329 331 330 329 328 329 329 328 328 329 328 327 324 322 322 320 318 315 314 314 313 310 309 307 312 316 313 315 314 315 315 315 312 310 310 309
331 331 331 331 331 331 330 331 330 329 328 326 325 324 324 324 322 323 320 318 316 315 313 311 310 311 308 305 304 304 307 313 310 309 310 309 308 308 306 304 301 298 298
332 332 330 331 331 331 330 329 328 327 324 323 322 320 319 318 317 316 314 313 310 306 304 304 304 306 303 300 301 302 308 312 305 304 304 305 303 302 297 295 295 296 300
332 332 332 331 332 330 328 327 325 322 319 317 315 313 312 311 310 310 308 305 303 300 296 297 297 298 299 299 303 304 308 311 308 304 304 300 297 292 292 293 296 298 302
327 330 331 331 330 330 328 327 325 318 311 309 307 307 306 306 304 301 298 296 295 296 295 294 294 295 295 301 297 307 306 304 307 304 304 297 293 291 293 294 299 299 295
318 322 325 328 329 329 328 325 318 309 303 301 299 297 295 295 294 294 295 295 295 294 294 293 293 293 294 296 294 298 298 301 298 303 299 296 289 290 292 293 297 294 290
306 313 319 321 323 321 318 315 310 303 297 294 293 293 295 296 297 295 294 293 292 292 292 291 290 290 291 291 293 293 293 295 295 295 293 292 289 289 291 293 292 289 288
306 309 312 314 314 313 312 308 304 296 293 294 297 300 297 298 296 294 293 293 292 291 290 289 289 289 288 289 290 291 292 294 288 292 293 290 288 287 291 290 289 287 285
303 305 307 308 306 307 308 305 301 297 298 301 303 304 303 303 301 300 295 291 290 288 288 287 287 287 286 287 288 288 288 289 289 289 289 288 287 287 290 286 288 286 282
Wind_Speed
17 15 16 13 11 9 5 8 13 14 15 18 18 17 17 16 14 14 14 14 14 14 14 14 13 12 12 12 12 12 12 12 11 11 13 13 13 13 14 13 12 12 10
23 18 17 14 12 9 8 9 17 16 16 18 19 17 15 14 13 13 13 13 13 12 12 12 12 11 10 10 11 11 10 11 11 9 9 12 12 12 11 12 11 10 9
22 21 17 14 13 12 13 16 19 17 17 19 17 14 14 13 13 12 12 12 12 11 11 11 10 10 10 10 10 10 9 10 11 10 10 11 12 11 10 9 9 9 9
23 22 17 16 15 14 16 17 17 19 21 19 16 14 13 13 12 12 12 11 11 11 10 10 9 10 10 10 10 9 8 9 10 9 10 9 10 11 10 10 10 10 10
24 21 19 17 16 15 16 19 21 21 19 17 13 12 12 12 11 10 10 10 9 9 9 9 9 10 10 11 11 10 7 8 10 8 9 10 10 12 12 10 11 12 12
23 22 19 17 15 14 14 15 14 14 12 11 10 11 11 10 11 11 10 8 8 9 9 9 9 9 10 10 10 9 8 6 7 7 7 9 10 11 13 9 9 10 12
25 22 19 17 15 14 13 13 12 11 10 10 12 12 12 11 9 8 7 7 8 8 8 8 9 9 10 12 12 12 7 5 7 6 6 7 10 10 13 11 10 10 10
26 22 20 17 15 13 11 11 11 11 10 11 11 11 11 10 10 9 8 7 7 6 7 8 9 10 11 12 13 13 11 8 7 8 9 11 9 11 12 14 11 11 12
24 23 20 17 14 12 11 11 12 12 12 11 11 11 10 10 9 8 7 7 7 7 8 9 10 10 9 10 11 10 9 9 9 11 12 12 11 11 11 15 15 13 12
25 22 20 16 13 12 12 12 12 12 12 12 12 12 11 10 10 9 9 9 8 8 9 9 9 9 9 11 10 10 9 10 10 10 12 14 13 11 12 14 16 15 14
24 22 18 16 14 11 12 13 13 13 12 12 12 10 9 7 7 8 8 8 7 6 7 8 8 8 10 11 12 11 12 13 14 13 13 14 15 13 14 15 16 16 16
25 22 20 18 15 12 14 14 15 14 13 12 9 8 7 6 6 6 5 5 6 6 7 7 10 10 10 12 13 13 14 14 16 16 17 16 15 17 16 18 18 17 17
26 24 22 18 16 11 14 15 15 13 11 9 7 5 4 4 3 3 3 4 5 5 7 8 9 10 11 12 13 14 14 15 15 15 17 16 16 17 17 18 19 19 19
26 24 20 19 18 12 13 15 14 12 9 7 6 5 5 5 3 2 3 4 5 7 7 8 9 11 11 11 12 13 14 15 15 16 16 18 15 16 17 20 20 20 19
24 26 22 22 16 15 14 14 12 11 9 7 5 3 5 3 2 2 3 4 4 6 7 8 10 12 12 12 14 13 12 12 13 13 15 15 14 14 14 15 15 15 17
26 25 21 23 18 17 14 12 11 10 9 8 5 4 3 1 1 1 3 5 4 5 6 8 8 12 13 12 12 12 12 13 14 14 12 11 11 10 11 12 15 18 20
28 26 24 23 20 17 15 12 12 11 9 8 7 6 5 3 3 3 3 4 4 5 9 7 7 10 11 10 11 11 13 16 12 9 12 12 12 14 14 14 15 19 20
30 28 24 24 20 18 15 12 12 12 13 9 9 9 7 4 3 1 2 4 6 8 6 7 8 7 9 11 13 13 16 11 12 15 13 14 16 15 15 18 18 19 21
31 27 25 23 19 20 17 16 14 13 13 12 11 8 7 5 5 3 3 4 4 5 7 8 8 10 15 18 17 16 12 9 13 13 14 17 18 20 23 23 23 23 22
27 24 22 26 19 22 19 16 15 15 15 13 11 10 7 7 5 6 7 8 9 10 12 12 12 11 17 21 17 17 9 4 15 17 17 17 20 24 26 25 24 24 22
25 23 23 27 23 22 20 19 19 18 15 14 12 11 11 11 10 11 12 11 11 14 17 17 15 15 18 21 15 16 6 2 10 15 19 22 28 31 25 25 25 25 25
19 20 19 21 23 23 21 20 20 21 15 16 15 15 14 14 14 14 15 16 15 14 15 18 19 14 14 18 12 6 4 5 7 11 13 21 30 25 25 24 22 22 23
20 19 17 16 18 18 21 22 23 21 22 21 20 22 21 20 20 17 18 15 16 16 17 17 17 16 14 10 17 7 3 2 9 5 12 17 27 25 22 23 19 19 22
18 17 17 18 18 19 19 22 23 23 22 21 23 23 21 20 18 15 17 16 16 14 15 15 14 14 14 16 5 12 9 4 3 4 6 15 24 21 21 20 15 20 24
16 16 17 17 18 19 21 24 26 27 27 26 21 21 16 18 15 15 14 14 14 13 13 13 13 15 15 15 15 10 9 8 13 3 3 15 18 24 17 17 16 22 29
17 17 18 20 22 20 22 24 30 29 25 18 17 14 13 12 8 8 10 13 14 12 14 14 14 15 16 16 16 17 16 8 7 5 3 10 13 15 13 20 19 23 34
Wind_Direction
155 150 143 134 133 129 121 157 159 147 141 137 122 108 100 95 94 95 93 90 85 81 77 75 75 76 72 70 72 81 83 76 65 60 56 55 61 59 56 53 54 52 46
153 148 142 139 131 113 97 129 153 148 143 137 121 111 102 103 103 100 97 95 89 84 80 77 76 73 68 64 69 77 74 61 54 47 58 57 52 48 46 45 45 44 37
148 148 143 144 131 111 99 108 135 138 136 128 116 110 107 107 106 102 98 97 93 86 80 74 70 63 57 54 56 64 69 58 48 54 57 47 46 33 31 32 23 22 23
146 147 148 144 135 121 104 115 129 132 128 121 114 110 104 104 106 107 104 97 89 81 73 68 65 60 54 48 48 56 64 51 39 50 43 29 19 21 17 9 7 3 3
147 150 147 143 135 128 120 114 116 117 118 120 120 110 105 107 105 109 100 92 87 82 77 72 66 61 55 51 49 51 59 51 53 55 31 17 12 10 6 359 356 353 354
148 150 148 144 136 131 130 130 130 130 127 121 116 112 115 116 115 118 111 94 87 83 76 68 59 51 47 45 41 41 49 54 46 34 16 8 3 356 359 350 342 341 343
149 152 149 147 141 136 132 132 133 131 128 125 121 117 114 115 115 115 108 95 86 80 71 61 53 49 49 45 37 35 41 37 22 26 360 341 335 339 350 348 340 336 329
153 153 151 148 144 140 136 135 135 133 129 127 123 119 115 112 110 107 100 92 82 72 62 54 51 54 53 46 41 46 50 44 21 5 343 332 315 323 338 347 341 332 325
159 156 154 151 148 144 141 140 139 139 136 131 125 120 113 106 102 94 86 76 68 64 59 56 52 50 41 31 29 30 19 8 359 351 345 333 321 309 324 339 338 332 330
162 161 159 157 154 150 146 143 141 140 135 129 126 116 111 103 98 88 82 80 71 66 57 47 42 37 26 18 11 15 359 353 345 346 338 339 330 308 315 326 331 327 320
164 167 166 161 156 155 154 147 142 136 130 127 125 120 115 107 95 86 80 78 65 62 45 39 33 25 17 12 2 357 357 352 338 333 330 328 331 322 310 313 316 321 317
171 172 166 162 160 156 160 153 145 139 130 124 121 122 125 114 102 93 79 65 57 45 29 27 14 353 344 337 337 332 329 327 324 325 323 324 321 315 307 308 311 311 311
175 171 173 171 168 157 163 156 150 142 140 142 135 133 136 122 122 91 65 48 38 15 353 343 336 343 336 336 331 327 327 332 331 322 314 325 315 324 314 311 313 317 315
180 175 173 178 172 167 163 156 157 158 159 159 159 165 155 149 129 99 47 4 352 347 345 330 329 328 328 326 332 333 328 330 333 336 337 340 346 330 335 329 331 332 331
169 172 175 177 175 174 171 162 163 164 167 170 165 164 165 157 123 48 11 356 334 321 316 318 324 329 331 328 326 326 334 335 336 334 332 334 341 334 331 338 348 348 345
175 174 174 174 177 178 175 177 173 178 179 173 160 149 145 149 31 288 303 295 303 331 326 324 326 320 328 333 332 335 337 335 332 335 341 346 352 355 20 4 358 6 3
180 179 177 178 184 183 181 179 178 172 170 172 168 171 183 189 243 261 272 319 355 345 309 316 317 324 328 338 342 347 347 345 342 359 26 48 47 46 41 34 27 22 13
180 180 180 184 184 181 182 178 173 165 173 174 172 159 177 177 183 158 25 23 3 330 338 341 348 358 352 350 348 351 351 16 51 56 61 49 43 42 36 26 20 15 11
186 188 189 187 187 187 181 181 172 173 175 157 141 131 124 122 112 107 87 54 10 17 32 34 30 19 1 353 350 348 5 48 58 48 44 42 35 28 19 11 9 9 8
193 195 194 190 186 179 184 175 171 154 138 137 130 121 120 109 110 99 87 84 68 58 50 45 32 23 6 353 344 348 16 65 53 41 42 33 29 18 11 10 6 10 23
194 191 186 185 189 181 181 168 152 139 134 127 121 119 113 108 103 105 97 82 70 61 38 38 34 23 14 8 351 352 14 103 42 45 34 29 19 9 11 13 20 19 26
147 163 173 184 183 186 187 179 165 150 134 123 114 110 107 106 105 99 91 84 63 59 46 37 34 30 30 24 13 342 356 344 309 27 23 17 8 16 23 26 35 40 35
122 128 135 152 163 177 180 168 153 137 123 117 108 102 94 96 88 76 81 59 59 45 44 36 30 30 28 43 44 42 3 313 335 2 18 17 10 16 30 25 46 26 26
110 121 129 133 143 144 151 152 144 132 113 110 104 101 96 85 80 70 62 62 54 48 45 43 40 45 42 39 29 65 50 65 2 324 343 353 5 15 27 29 33 19 9
110 115 118 121 121 136 147 142 134 115 115 113 114 97 85 87 74 67 61 59 52 46 55 53 50 51 56 62 60 42 56 55 24 358 310 335 347 1 11 22 13 10 1
119 119 119 119 113 118 124 124 120 119 117 119 111 104 93 88 80 62 48 55 58 61 58 60 62 61 61 66 69 65 64 52 30 18 309 319 310 331 353 355 1 358 356